STARLINK-11305, 61247

Orbit data source: Space-Track

STARLINK-11305, 61247 is a payload satellite owned by SpaceX/Seattle (US) in LEO that was launched on Wed, 25 Sep 2024 UTC via an FALCON 9 launch vehicle from the Air Force Western Test Range (AFWTR). Payload-class satellites include a variety of spacecraft equipped with specific instruments for various scientific and technological missions. These include communications satellites like Starlink; space stations such as the ISS; scientific satellites like the Hubble; Earth observation satellites from companies like Planet Labs, Umbra, and HawkEye 360; GPS; miniature CubeSats for education and research; and military/defense satellites.

Loading next visibility...
Identifier
61247, 2024-175E
Orbit
LEO
Country
Flag of USUS
Related business
Manufacturer
SpaceX/Seattle
Mission
Operational Commercial Communications
Bus & Motor
STARLINK V2MD, Unknown motor
Mass
960 kg wet, ~910 kg dry
Launch date (UTC)
2024-09-25 (2 years ago)
Launch vehicle
FALCON 9
Launch site
Air Force Western Test Range (AFWTR)
Object type
Payload
Rocket body
Debris
Shape & HBR
Box + 2 Pan, 18.1 m
Radar Cross Section
36.964 m², Large (>1 m²)

Expand to show TLE details & history
Last TLE update: 10 hours ago

TLE from 10 hours ago
0 STARLINK-11305
1 61247U 24175E   26171.41640588  .00002232  00000-0  23302-4 0  9995
2 61247  53.1582 269.6577 0001308  88.2422 271.8746 15.69687116 99504
Epoch: 2026-06-20T09:59Z
TLE epoch observation values (Epoch: 2026-06-20T09:59:37.468Z)
Latitude
0.00003°
Longitude
-148.87974°
Altitude
360.678 km
Speed
7.694 km/s
True Right ascension
17h 58m 37s
True Declination
0° 00' 00"
Sunlit
Object was in full shadow at epoch
Visualization orbit readout
Latitude
Unknown
Longitude
Unknown
Altitude
Unknown
Speed
Unknown
Apparent Right ascension
Unknown
Apparent Declination
Unknown
Sunlit
N/A
Visualization observer readout
Local Sidereal Time
07:24:17
Azimuth
Unknown
Elevation
Unknown
Doppler factor
Unknown
Orbital elements
Apogee altitude
360.935 km
Perigee altitude
359.172 km
Semi-major axis
6,738.19 km
Eccentricity
0.00013
Inclination
53.1582°
RAAN
269.6577°
Arg. of periapsis
88.2422°
True anomaly
271.85962°
Mean anomaly
271.8746°
Eccentric anomaly
271.86711°
Mean motion
3.92399 °/min
Orbital period
91.74 mins
BSTAR
0.000023302
Loading maneuver chart data...
Computing Atmospheric mass density...
Loading historical data...
Loading historical data...
Loading historical data...
Loading historical data...
Loading historical data...
Loading historical data...
Loading historical data...

Documentation

Showing up to 5 results
|